DateTimeUTC,F1_A11,F1_S11,BsB_S11,BsG_S11,BsR_S11,BbsB_S11,BbsG_S11,BbsR_S11,BaB_A11,BaG_A11,BaR_A11,Tu_S11,T_S11,Uu_S11,U_S11,P_S11,T1_A11
2021-11-05T05:00:00Z,00000200,21000000,,,,,,,0000.34,0000.04,0000.21,18.9,25.8,,00.0,0649.4,31.1
2021-11-05T05:01:00Z,00000200,21000000,,,,,,,-000.06,0000.00,0000.08,18.9,25.8,,00.0,0649.4,31.1
2021-11-05T05:02:00Z,00000200,21000000,,,,,,,-000.09,0000.01,-000.47,18.8,25.8,,00.0,0649.4,31.1
2021-11-05T05:03:00Z,00000200,61000000,,,,,,,0000.14,0000.16,0000.37,18.8,25.8,,00.0,0649.4,31.1
2021-11-05T05:04:00Z,00000200,41000000,-000.17,0000.02,0000.23,0000.32,-000.17,-000.05,0000.02,-000.12,-000.05,18.9,25.6,,00.0,0650.3,31.1
2021-11-05T05:05:00Z,00000200,01000000,-000.23,0000.24,-000.15,-000.18,0000.01,0000.36,0000.50,0000.09,0000.37,19.0,25.6,,00.0,0650.3,31.1
2021-11-05T05:06:00Z,00000200,01000000,0000.59,0000.01,0000.04,-000.11,-000.19,0000.12,-000.21,0000.16,0000.39,19.1,25.6,,00.0,0650.3,31.1
2021-11-05T05:07:00Z,00000200,01000000,-000.12,0000.25,0000.15,-000.04,-000.09,0000.04,-000.13,0000.31,-000.32,19.1,25.6,,00.0,0650.3,31.1
2021-11-05T05:08:00Z,00000200,01000000,0000.22,0000.36,0000.10,0000.33,0000.40,0000.13,0000.29,-000.10,0000.05,19.2,25.7,,00.0,0650.3,31.2
2021-11-05T05:09:00Z,00000200,01000000,0000.04,-000.09,0000.16,0000.04,0000.01,0000.09,0000.16,0000.22,0000.38,19.3,25.7,,00.0,0650.3,31.2
2021-11-05T05:10:00Z,00000200,01000000,0000.31,-000.34,0000.10,-000.27,-000.08,0000.25,-000.20,-000.29,-000.27,19.3,25.7,,00.0,0650.3,31.2
2021-11-05T05:11:00Z,00000200,01000000,-000.39,0000.05,0000.10,0000.19,0000.03,0000.24,-000.06,-000.03,0000.03,19.2,25.7,,00.0,0650.3,31.1
2021-11-05T05:12:00Z,00000200,01000000,0000.39,0000.14,0000.19,0000.12,0000.48,-000.06,-000.09,-000.24,0000.10,19.2,25.7,,00.0,0650.3,31.1
2021-11-05T05:13:00Z,00000200,01000000,0000.22,-000.13,0000.18,0000.28,0000.31,-000.23,0000.24,0000.31,-000.21,19.1,25.6,,00.0,0650.3,31.1
2021-11-05T05:14:00Z,00000200,01000000,0000.10,-000.14,-000.24,0000.08,-000.21,0000.16,-000.11,-000.04,0000.09,19.0,25.6,,00.0,0650.3,31.1
2021-11-05T05:15:00Z,00000200,01000000,0000.21,0000.08,0000.03,-000.55,-000.18,0000.15,0000.11,-000.37,-000.41,18.9,25.6,,00.0,0650.2,31.1
2021-11-05T05:16:00Z,00000200,01000000,0000.25,-000.29,-000.07,0000.04,0000.07,0000.31,-000.07,0000.60,0000.23,18.9,25.5,,00.0,0650.2,31.1
2021-11-05T05:17:00Z,00000200,01000000,0000.52,-000.03,-000.06,-000.38,-000.21,-000.09,0000.04,-000.53,-000.06,18.8,25.5,,00.0,0650.2,31.1
2021-11-05T05:18:00Z,00000200,01000000,0000.53,-000.29,-000.12,0000.07,-000.23,0000.07,0000.07,0000.16,0000.12,18.8,25.5,,00.0,0650.2,31.1
2021-11-05T05:19:00Z,00000200,01000000,0000.03,-000.32,0000.14,-000.07,-000.26,0000.05,0000.25,0000.39,0000.25,18.9,25.5,,00.0,0650.3,31.1
2021-11-05T05:20:00Z,00000200,01000000,-000.01,0000.10,0000.28,-000.53,0000.09,0000.12,-000.19,0000.02,-000.14,18.9,25.5,,00.0,0650.3,31.1
2021-11-05T05:21:00Z,00000200,01000000,0000.31,-000.18,0000.14,0000.51,-000.24,0000.24,0000.27,0000.16,0000.07,19.0,25.5,,00.0,0650.3,31.1
2021-11-05T05:22:00Z,00000200,01000000,0000.42,-000.11,0000.21,-000.08,-000.10,0000.20,0000.16,0000.08,0000.32,19.1,25.5,,00.0,0650.3,31.1
2021-11-05T05:23:00Z,00000200,01000000,0000.68,0000.18,-000.03,-000.38,0000.12,-000.29,-000.08,-000.13,-000.00,19.2,25.6,,00.0,0650.3,31.1
2021-11-05T05:24:00Z,00000200,01000000,0000.46,-000.11,0000.34,-000.68,-000.25,0000.06,-000.04,0000.07,0000.09,19.2,25.6,,00.0,0650.3,31.2
2021-11-05T05:25:00Z,00000200,01000000,0000.38,0000.06,0000.07,0000.52,0000.02,0000.24,0000.10,-000.20,-000.14,19.3,25.7,,00.0,0650.3,31.2
2021-11-05T05:26:00Z,00000200,01000000,0000.56,-000.00,-000.13,-000.18,-000.23,0000.22,0000.20,0000.49,0000.33,19.4,25.7,,00.0,0650.3,31.2
2021-11-05T05:27:00Z,00000200,01000000,-000.18,0000.19,0000.50,0000.32,-000.01,0000.09,-000.05,0000.02,0000.02,19.4,25.7,,00.0,0650.3,31.2
2021-11-05T05:28:00Z,00000200,01000000,0000.72,-000.07,0000.14,-000.60,0000.04,-000.05,-000.04,-000.24,-000.15,19.4,25.7,,00.0,0650.4,31.2
2021-11-05T05:29:00Z,00000200,01000000,0000.80,-000.16,-000.29,-000.60,-000.25,-000.12,-000.41,0000.13,-000.11,19.3,25.7,,00.0,0650.3,31.2
2021-11-05T05:30:00Z,00000200,01000000,0000.03,0000.47,-000.28,-000.19,-000.24,-000.05,0000.19,-000.32,-000.03,19.2,25.7,,00.0,0650.4,31.1
2021-11-05T05:31:00Z,00000200,01000000,0000.75,0000.32,0000.14,-000.31,0000.36,0000.01,0000.19,0000.20,-000.16,19.2,25.6,,00.0,0650.4,31.1
2021-11-05T05:32:00Z,00000200,01000000,0000.25,0000.01,-000.05,-000.37,-000.16,-000.28,-000.58,-000.22,0000.09,19.1,25.6,,00.0,0650.4,31.1
2021-11-05T05:33:00Z,00000200,01000000,0000.14,0000.16,0000.23,-000.02,-000.03,0000.10,0000.34,-000.09,0000.09,19.1,25.6,,00.0,0650.4,31.1
2021-11-05T05:34:00Z,00000200,01000000,0000.77,0000.30,0000.08,-000.45,0000.23,0000.15,0000.11,0000.08,-000.33,19.1,25.6,,00.0,0650.4,31.1
2021-11-05T05:35:00Z,00000200,01000000,-000.18,0000.35,0000.08,0000.19,0000.02,-000.12,-000.28,-000.20,0000.13,19.1,25.6,,00.0,0650.4,31.1
2021-11-05T05:36:00Z,00000200,01000000,0000.60,0000.22,0000.28,-000.07,0000.15,0000.18,0000.10,0000.02,-000.10,19.2,25.6,,00.0,0650.5,31.2
2021-11-05T05:37:00Z,00000200,01000000,-000.44,0000.12,0000.26,-000.13,0000.36,0000.46,0000.23,0000.05,0000.14,19.3,25.7,,00.0,0650.5,31.2
2021-11-05T05:38:00Z,00000200,01000000,0000.60,-000.06,-000.01,-000.19,0000.11,0000.23,-000.08,0000.38,0000.30,19.3,25.7,,00.0,0650.5,31.2
2021-11-05T05:39:00Z,00000200,01000000,-000.14,0000.29,0000.34,0000.04,0000.03,-000.04,-000.13,0000.07,-000.20,19.4,25.8,,00.0,0650.5,31.2
2021-11-05T05:40:00Z,00000200,01000000,0000.76,0000.03,-000.14,-000.04,-000.36,0000.02,0000.03,-000.24,0000.11,19.5,25.8,,00.0,0650.5,31.2
2021-11-05T05:41:00Z,00000200,01000000,0000.10,0000.23,0000.12,-000.28,-000.09,0000.26,-000.51,-000.14,-000.22,19.4,25.8,,00.0,0650.4,31.2
2021-11-05T05:42:00Z,00000200,01000000,0000.11,-000.14,-000.16,0000.43,0000.00,0000.24,0000.63,0000.31,0000.07,19.4,25.8,,00.0,0650.4,31.1
2021-11-05T05:43:00Z,00000200,01000000,-000.19,0000.26,-000.17,0000.26,-000.02,-000.01,-000.18,-000.31,-000.18,19.3,25.7,,00.0,0650.5,31.1
2021-11-05T05:44:00Z,00000200,01000000,0000.60,-000.23,0000.22,-000.19,-000.13,0000.32,-000.06,-000.09,0000.03,19.2,25.7,,00.0,0650.5,31.1
2021-11-05T05:45:00Z,00000200,01000000,-000.68,0000.34,-000.42,0000.05,0000.35,0000.17,0000.38,-000.13,0000.12,19.1,25.6,,00.0,0650.5,31.1
2021-11-05T05:46:00Z,00000200,01000000,0000.60,0000.29,0000.17,-000.03,0000.01,-000.23,-000.44,0000.07,-000.25,19.1,25.6,,00.0,0650.5,31.1
2021-11-05T05:47:00Z,00000200,01000000,-000.18,-000.09,0000.42,0000.26,-000.10,0000.06,-000.06,-000.16,0000.07,19.0,25.6,,00.0,0650.4,31.1
2021-11-05T05:48:00Z,00000200,01000000,0000.14,-000.15,-000.01,0000.60,0000.05,-000.17,-000.12,0000.14,0000.09,19.0,25.5,,00.0,0650.5,31.1
2021-11-05T05:49:00Z,00000200,01000000,-000.13,0000.24,0000.16,-000.02,-000.19,0000.17,0000.12,-000.21,-000.09,19.0,25.5,,00.0,0650.5,31.1
2021-11-05T05:50:00Z,00000200,01000000,0000.21,0000.08,0000.15,-000.31,0000.37,0000.20,-000.29,0000.03,0000.02,19.1,25.6,,00.0,0650.5,31.1
2021-11-05T05:51:00Z,00000200,01000000,0000.64,0000.24,0000.32,-000.29,0000.26,0000.17,0000.45,-000.19,0000.03,19.1,25.6,,00.0,0650.5,31.1
2021-11-05T05:52:00Z,00000200,01000000,0000.76,0000.20,-000.18,-000.15,0000.32,-000.16,-000.13,0000.45,0000.21,19.2,25.6,,00.0,0650.5,31.1
2021-11-05T05:53:00Z,00000200,01000000,0000.04,-000.05,0000.10,-000.63,-000.17,-000.02,-000.12,0000.09,-000.30,19.3,25.7,,00.0,0650.5,31.2
2021-11-05T05:54:00Z,00000200,01000000,0000.54,-000.04,0000.02,-000.42,-000.12,0000.21,-000.14,-000.09,0000.17,19.4,25.7,,00.0,0650.5,31.2
2021-11-05T05:55:00Z,00000200,01000000,-000.30,-000.11,-000.07,-000.20,-000.02,-000.07,-000.03,-000.02,0000.08,19.4,25.8,,00.0,0650.6,31.2
2021-11-05T05:56:00Z,00000200,01000000,0000.51,0000.08,0000.29,0000.30,0000.00,0000.16,-000.07,-000.23,-000.22,19.4,25.8,,00.0,0650.5,31.2
2021-11-05T05:57:00Z,00000200,41000000,,,,,,,0000.75,0000.46,0000.49,19.5,25.8,,00.0,0650.5,31.2
2021-11-05T05:58:00Z,00000200,61000000,,,,,,,-000.63,-000.21,-000.92,19.1,25.8,,00.0,0649.6,31.2
2021-11-05T05:59:00Z,00000200,21000000,,,,,,,-000.30,-000.30,0000.07,19.0,25.9,,00.0,0649.6,31.1
